Regional Weather Roundup
Issued by NWS

Home | Current Version | Previous Version | Graphics & Text | Print | Product List | Glossary On
Versions: 1 2 3 4 5 6 7 8 9 10 11 12 13 14 15 16 17 18 19 20 21 22 23 24 25 26 27 28 29 30 31 32 33 34 35 36 37 38 39 40 41 42 43 44 45 46 47 48 49 50
000
ASUS43 KMPX 251710
RWRMN
WEATHER ROUNDUP FOR MINNESOTA
NATIONAL WEATHER SERVICE TWIN CITIES/CHANHASSEN MN
1200 PM CDT SAT OCT 25 2014


NOTE: "FAIR" INDICATES FEW OR NO CLOUDS BELOW 12,000 FEET WITH NO
SIGNIFICANT WEATHER AND/OR OBSTRUCTIONS TO VISIBILITY. N/A MEANS
CURRENT SKY AND/OR WEATHER CONDITIONS ARE NOT AVAILABLE.

MNZ060>063-068>070-251800-
   Twin Cities Metro

CITY           SKY/WX    TMP DP  RH WIND       PRES   REMARKS
TWIN CITIES    MOSUNNY   57  31  37 NW15      30.05S
ST PAUL        SUNNY     57  31  37 NW14      30.05S
CRYSTAL        MOSUNNY   58  32  37 W14G20    30.04F
BLAINE         MOSUNNY   61  32  33 NW14G22   30.04S
LAKEVILLE      MOSUNNY   55  32  41 NW13G21   30.06S
EDEN PRAIRIE   PTSUNNY   57  33  40 W8        30.06S
SOUTH ST PAUL  MOSUNNY   58  29  33 NW15G23   30.05R
LAKE ELMO      FAIR      59  32  36 NW15G22   30.04S
$$
MNZ001>005-007-008-013>017-022>024-027-028-251800-
   Northwest Minnesota

CITY           SKY/WX    TMP DP  RH WIND       PRES   REMARKS
BEMIDJI        SUNNY     51  28  41 NW24G31   30.02S
HALLOCK        SUNNY     54  27  35 NW20G26   30.04S
ROSEAU         SUNNY     54  30  40 NW18G24   29.99S
WARROAD        SUNNY     52  32  46 NW16G30   29.97S
THIEF RVR FALL SUNNY    N/A N/A N/A W16G26    30.05S
CROOKSTON      SUNNY     55  28  35 NW21G26   30.08S
FOSSTON        SUNNY     52  28  40 W17G25    30.06S
DETROIT LAKES  SUNNY     52  30  43 NW21G26   30.09S
MOORHEAD       SUNNY     55  25  30 NW17G23   30.12S
PARK RAPIDS    SUNNY     54  26  34 NW23G29   30.03S
MAHNOMEN         N/A     53  29  39 NW20      30.07S
$$
MNZ006-009>011-018-025>026-251800-
   North Central Minnesota

CITY           SKY/WX    TMP DP  RH WIND       PRES   REMARKS
BAUDETTE       SUNNY     51  31  46 NW15G26   29.95R
FLAG ISLAND    SUNNY     48  30  49 W29G37    29.91S
INTL FALLS     SUNNY     51  31  46 W17G31    29.89S
WASKISH        SUNNY     52  36  54 W13G21    29.98S
BIG FORK       SUNNY     52  30  43 NW9G23    29.95R
LONGVILLE      SUNNY     54  28  37 W16G25    30.00R
GRAND RAPIDS   SUNNY     52  30  43 W17G24    29.97R
CRANE LAKE     SUNNY     50  28  43 W13G23    29.88F
ORR            SUNNY     52  28  40 NW20G30   29.88R
COOK           SUNNY     52  30  43 W18G36    29.90S
WALKER         FAIR      52  29  41 W13G25    30.01S
$$
MNZ012-019>021-037-251800-
   Northeast Minnesota

CITY           SKY/WX    TMP DP  RH WIND       PRES   REMARKS
DULUTH         SUNNY     55  30  38 W23G32    29.91S
ELY            SUNNY     52  28  40 W18G32    29.85S
HIBBING        SUNNY     54  30  40 W15G29    29.92S
EVELETH        SUNNY     52  30  43 W18G28    29.91F
DULUTH HARBOR  SUNNY     55  36  47 W20       29.92F
TWO HARBORS    SUNNY     57  16  19 W13G28    29.86S
SILVER BAY     SUNNY     55  30  38 W9G23     29.82S
GRAND MARAIS     N/A     57  33  40 W13G33    29.72S
G MARAIS ARPRT SUNNY     48  28  46 W22G31    29.75S
$$
MNZ029>031-032-039>041-046>048-054>057-064-251800-
   West Central Minnesota

CITY           SKY/WX    TMP DP  RH WIND       PRES   REMARKS
FERGUS FALLS   MOSUNNY   54  27  35 NW17G26   30.12F
WHEATON        SUNNY     55  30  38 NW14      30.15S
MORRIS         MOSUNNY   57  34  41 NW16G24   30.11S
ALEXANDRIA     MOSUNNY   55  33  43 NW16G22   30.11R
ELBOW LAKE     FAIR      53  32  44 NW15      30.12S
WADENA         SUNNY     54  28  37 NW18G28   30.06S
GLENWOOD       PTSUNNY   55  34  44 W21       30.11S
APPLETON       SUNNY     63  30  29 NW17      30.13S
BENSON         SUNNY     57  30  35 N16       30.12S
ORTONVILLE     SUNNY     59  30  33 N13G18    30.13S
MADISON        SUNNY     63  34  34 NW12      30.14R
WILLMAR        FAIR      57  32  38 NW16      30.13S
$$
MNZ033>034-036-042>043-049>051-058-059-251800-
   Central Minnesota

CITY           SKY/WX    TMP DP  RH WIND       PRES   REMARKS
ST CLOUD       MOSUNNY   62  30  29 NW20      30.05S
SAUK CENTRE    CLOUDY    56  32  40 W16G24    30.08F
PAYNESVILLE    PTSUNNY   53  31  43 W21       30.10S
AITKIN         SUNNY     59  28  31 W9G17     29.99R
PINE RIVER     SUNNY     54  32  43 W10G21    30.05S
BRAINERD       SUNNY     54  29  38 NW18G25   30.03S
STAPLES        SUNNY     54  30  40 W18       30.05S
LONG PRAIRIE   FAIR      54  30  40 W17G25    30.08R
LITTLE FALLS   SUNNY     55  28  35 W14G21    30.05S
LITCHFIELD     PTSUNNY   59  30  33 NW15G23   30.10R
BUFFALO        MOSUNNY   55  31  39 W13       30.08R
MAPLE LAKE     PTSUNNY   56  35  44 W13G18    30.08R
$$
MNZ037-044-045-052-053-251800-
   East Central Minnesota

CITY           SKY/WX    TMP DP  RH WIND       PRES   REMARKS
PRINCETON      SUNNY     59  32  36 W17G23    30.04S
MORA           SUNNY     55  28  35 NW14G21   30.02F
CAMBRIDGE      SUNNY     59  37  44 W12G24    30.01F
RUSH CITY      MOSUNNY   58  32  37 W14G21    30.01F
MOOSE LAKE     SUNNY     55  32  41 W13G23    29.95S
HINCKLEY       FAIR      55  32  41 W13G21    30.00R
CLOQUET        SUNNY     54  28  37 W21G26    29.94S
MCGREGOR       SUNNY     57  30  35 W10G18    29.98S
$$
MNZ071>073-080-081-089-090-097-098-251800-
   Southwest Minnesota

CITY           SKY/WX    TMP DP  RH WIND       PRES   REMARKS
MONTEVIDEO     SUNNY     63  37  39 N10       30.13S
GRANITE FALLS  SUNNY     60  35  38 NW13      30.15S
CANBY          SUNNY     60  33  36 NW7       30.15S
MARSHALL       SUNNY     61  32  33 N14       30.13S
REDWOOD FALLS  SUNNY     61  32  33 N10       30.12S
OLIVIA         SUNNY     59  34  38 NW13G18   30.11S
PIPESTONE      SUNNY     61  28  29 NE10      30.14S
WINDOM         SUNNY     63  30  29 N14G20    30.13S
WORTHINGTON    SUNNY     61  34  36 N12G18    30.15S
JACKSON        SUNNY     63  30  29 NW10      30.14S
TRACY          SUNNY     61  34  36 N7        30.14S
SLAYTON        SUNNY     60  30  32 NW8       30.15S
$$
MNZ065>067-074>077-082>085-091>093-251800-
   South Central Minnesota

CITY           SKY/WX    TMP DP  RH WIND       PRES   REMARKS
MANKATO        SUNNY     61  30  31 NW14      30.10S
NEW ULM        SUNNY     61  36  39 NW12G18   30.12R
ST JAMES       SUNNY     63  30  29 NW9       30.13S
FAIRMONT       SUNNY     63   1   8 N13       30.12S
GLENCOE        MOSUNNY   60  33  36 NW15G22   30.09R
FARIBAULT      MOSUNNY   63  32  31 W13       30.09R
OWATONNA       SUNNY     61  30  31 NW13G22   30.09R
WASECA         SUNNY     59  28  31 NW13      30.11S
ALBERT LEA     SUNNY     63  32  31 NW12G20   30.10R
$$
MNZ078>079-086>088-094>096-251800-
   Southeast Minnesota

CITY           SKY/WX    TMP DP  RH WIND       PRES   REMARKS
ROCHESTER      MOSUNNY   61  32  33 NW15G25   30.08R
RED WING       SUNNY     61  30  31 W10G16    30.02S
STANTON        MOSUNNY   60  31  33 NW16      30.06R
DODGE CENTER   SUNNY     61  32  33 NW18G24   30.07R
WINONA         SUNNY     61  36  39 NW10      30.03R
AUSTIN         SUNNY     61  37  41 NW13G20   30.08R
PRESTON        SUNNY     58  34  39 NW16G23   30.06S
$$
ABBREVIATIONS USED IN REMARKS
   TC - TEMPERATURES IN CELSIUS
  WCI - WIND CHILL INDEX
   HX - HEAT INDEX
  VSB - VISIBILITY
$$



USA.gov is the U.S. government's official web portal to all federal, state and local government web resources and services.